SCP
0 0 0 0 0 0 0 0 0 0 0 0 0 0 0 0 0 0 0 0 0 0 0 0 0 0 0 0 0 0 0 0 0 0 0 0 0 0 0 0 0 0 0
0 0 0 0 0 0 0 0 0 0 0 0 0 0 0 0 0 0 0 0 0 0 0 0 0 0 0 0 0 0 0 0 0 -0 0 0 0 0 0 0 0 0 0
0 0 0 0 0 0 0 0 0 0 0 0 0 0 0 0 0 0 0 0 0 0 0 0 0 0 0 0 0 0 0 0 0 0 0 0 0 0 0 0 0 0 0
0 0 0 0 0 0 0 0 0 0 0 0 0 0 0 0 0 0 0 0 0 0 0 0 0 0 0 0 0 0 0 0 0 0 0 0 0 0 0 0 0 0 0
0 0 0 0 0 0 0 0 0 0 0 0 0 0 0 0 0 0 0 0 0 0 0 -0 0 0 0 0 0 0 0 0 0 0 0 0 0 0 0 0 0 0 0
0 0 0 0 0 0 0 0 0 0 0 0 0 0 0 0 0 0 0 0 0 0 0 0 0 0 0 0 0 0 0 0 0 0 0 0 0 0 0 0 0 0 0
0 0 0 0 0 0 0 0 0 0 0 0 0 0 0 0 0 0 0 0 0 0 0 0 0 0 0 0 0 0 0 0 0 0 0 0 0 0 0 0 0 0 0
0 0 0 0 0 0 0 0 0 0 0 0 0 0 0 0 0 0 0 0 0 0 0 0 0 0 0 0 0 0 0 0 0 0 0 0 0 0 0 0 0 0 0
0 0 0 0 0 0 0 0 0 0 0 0 0 0 0 0 0 0 0 0 0 0 0 0 0 0 0 0 0 0 0 0 0 0 0 0 0 0 0 0 0 0 0
0 0 0 0 0 0 0 0 0 0 0 0 0 0 0 0 0 0 0 0 0 0 0 0 0 0 0 0 0 0 0 0 0 0 0 0 0 0 0 0 0 0 0
0 0 0 0 0 0 0 0 0 0 0 0 0 0 0 0 0 0 0 0 0 0 0 0 0 0 0 0 0 0 0 0 0 0 0 0 0 0 0 0 0 0 0
0 0 0 0 0 0 0 0 0 0 0 0 0 0 0 0 0 0 0 0 0 0 0 0 0 0 0 0 0 0 0 0 0 0 0 0 0 0 0 0 0 0 0
0 0 0 0 0 0 0 0 0 0 0 0 0 0 0 0 0 0 0 0 0 0 0 0 0 0 0 0 0 0 0 0 0 0 0 0 0 0 0 0 0 0 0
0 0 0 0 0 0 0 0 0 0 0 0 0 0 0 0 0 0 0 0 0 0 0 0 0 0 0 0 0 0 0 0 0 0 0 0 0 0 0 0 0 0 0
0 0 0 0 0 0 0 0 0 0 0 0 0 0 0 0 0 0 0 0 0 0 0 0 0 0 0 0 0 0 0 0 0 0 0 0 0 0 0 0 0 0 0
0 0 0 0 0 0 0 0 0 0 0 0 0 0 0 0 0 0 0 0 0 0 0 0 0 0 0 0 0 0 0 0 0 0 0 0 0 0 0 0 0 0 0
0 0 0 0 0 0 0 0 0 0 0 0 0 0 0 0 0 0 0 0 0 0 0 0 0 0 0 0 0 0 0 0 0 0 0 0 0 0 0 0 0 0 0
0 0 0 0 0 0 0 0 0 0 0 0 0 0 0 0 0 0 0 0 0 0 0 0 0 0 0 0 0 0 0 0 0 0 0 0 0 0 0 0 0 0 0
0 0 0 0 0 0 0 -0 0 0 0 0 0 0 0 0 0 0 0 0 0 0 0 0 0 0 0 0 0 0 0 0 0 0 0 0 0 0 0 0 0 0 0
0 0 0 -0 -0 -0 -0 0 0 0 0 0 0 0 0 0 0 0 0 0 0 0 0 0 0 0 0 0 0 0 0 0 0 0 0 0 0 0 0 0 0 0 0
0 0 -0 -0 -0 0 0 0 0 0 0 0 0 0 0 0 0 0 0 0 0 0 0 0 0 0 0 0 0 0 0 0 0 0 0 0 0 0 0 0 0 0 0
0 0 0 0 0 0 0 0 0 0 0 0 0 0 0 0 0 0 0 0 0 0 0 0 0 0 0 0 0 0 0 0 0 0 0 0 0 0 0 0 0 0 0
0 0 0 0 0 0 0 0 0 0 0 0 0 0 0 0 0 0 0 0 0 0 0 0 0 0 0 0 0 0 0 0 0 0 0 0 0 0 0 0 0 0 0
0 0 0 0 0 0 0 0 0 0 0 0 0 0 0 0 0 0 0 0 0 0 0 0 0 0 0 0 0 0 0 0 0 0 0 0 0 0 0 0 0 0 0
0 0 0 0 0 0 0 0 0 0 0 0 0 0 0 0 0 0 0 0 0 0 0 0 0 0 0 0 0 0 0 0 0 0 0 0 0 0 0 0 0 0 0
0 0 0 0 0 0 0 0 0 0 0 0 0 0 0 0 0 0 0 0 0 0 0 0 0 0 0 0 0 0 0 0 0 0 0 0 0 0 0 0 0 0 0
Wind_Speed_500mb
9 9 15 14 5 9 7 12 17 4 5 8 9 12 17 15 19 22 18 13 9 10 10 8 12 15 16 21 21 20 22 21 16 13 13 13 12 14 13 14 15 15 15
7 8 12 13 9 13 7 13 16 6 6 5 2 3 10 13 14 20 18 16 12 9 7 5 9 12 17 17 16 20 19 16 13 14 14 14 15 16 15 14 14 15 14
13 14 15 12 11 9 8 12 17 18 15 10 11 7 11 17 17 17 15 13 17 11 7 5 7 11 14 15 16 14 14 15 15 15 15 15 15 15 15 16 16 15 14
16 13 15 5 2 12 9 15 23 21 15 15 14 12 15 18 20 17 17 13 13 14 11 8 4 8 12 14 15 15 15 16 16 17 16 16 15 15 16 15 15 14 14
13 16 16 11 14 17 17 18 23 20 18 16 18 20 20 22 24 24 23 19 13 9 8 8 6 6 10 13 16 17 17 17 17 17 17 17 17 17 18 19 20 20 19
12 14 18 24 23 24 25 24 22 22 22 21 21 26 30 28 27 29 28 28 26 19 12 9 8 10 10 13 16 18 20 20 20 20 20 20 21 22 22 21 20 18 16
16 21 23 27 29 28 29 28 26 24 25 26 28 29 32 32 34 34 35 37 36 33 28 22 17 13 16 17 17 19 21 22 23 23 23 22 21 21 21 19 18 17 16
18 23 26 25 30 31 29 28 28 25 25 26 30 32 30 34 41 42 42 46 44 45 43 38 34 29 24 25 25 24 26 28 29 28 27 26 25 24 23 21 20 17 15
14 15 19 22 25 27 29 27 29 34 34 32 32 31 18 18 26 28 29 39 47 53 53 53 50 46 43 38 35 35 34 33 35 36 35 34 31 30 28 26 25 22 20
18 20 23 25 24 26 27 26 27 30 33 36 33 36 41 48 43 37 35 32 32 39 49 56 58 61 59 57 52 48 43 41 41 42 42 39 39 38 35 31 28 26 24
16 21 24 28 30 33 37 33 30 28 31 34 33 37 39 44 50 53 69 47 42 50 56 60 61 62 63 71 72 67 59 56 53 50 49 48 47 46 44 40 37 34 33
12 18 21 25 33 39 39 37 38 39 37 41 40 42 45 47 48 50 52 62 65 66 63 65 65 66 69 76 81 82 77 72 67 63 60 57 54 52 52 50 47 43 41
14 33 23 25 35 40 40 41 41 43 40 45 44 45 45 47 49 51 53 57 63 71 71 69 67 68 75 80 75 80 94 86 86 82 75 70 65 59 55 53 52 50 47
32 33 42 42 42 41 42 39 36 37 34 36 38 40 43 48 49 49 46 49 57 58 57 61 60 56 66 65 83 73 66 75 96 97 93 85 81 75 68 62 56 57 54
35 33 33 37 31 31 29 20 22 29 32 35 38 40 41 41 42 41 40 39 42 49 52 46 45 39 52 51 66 78 80 86 77 79 96 101 96 90 83 74 67 61 54
30 31 28 16 17 18 22 26 31 35 34 36 38 40 39 35 32 34 36 37 40 41 46 49 47 43 39 44 55 60 70 82 105 74 60 67 91 105 98 89 76 69 62
26 7 9 9 18 22 26 32 35 32 34 34 31 30 31 33 35 36 38 41 43 42 48 52 45 39 44 43 53 55 71 74 84 93 69 59 60 70 98 101 91 81 72
2 2 5 12 18 27 34 31 21 20 21 23 26 31 33 35 36 39 41 39 43 43 45 49 48 46 44 36 30 40 44 66 76 87 100 81 69 69 73 98 95 91 81
1 8 14 20 30 29 18 13 19 25 27 32 34 33 35 34 37 38 40 41 43 45 46 50 51 48 48 41 42 47 47 46 56 70 65 87 105 75 66 77 91 91 89
4 11 22 27 22 19 18 25 27 31 30 33 39 38 36 35 39 42 45 46 45 43 42 47 49 52 48 43 42 43 44 52 52 54 53 55 59 39 56 75 81 86 90
12 23 16 21 26 28 27 31 37 37 38 36 35 34 36 38 42 46 51 44 45 46 47 48 48 50 50 46 40 39 39 41 47 41 53 46 49 53 48 56 78 73 77
22 19 19 29 33 33 33 38 46 44 49 48 45 46 45 48 55 60 56 51 49 47 48 48 47 48 47 45 42 39 40 42 36 29 32 51 51 58 55 55 71 93 83
21 21 29 36 39 42 39 43 39 46 47 40 47 53 53 52 52 49 48 47 48 51 54 52 51 45 45 40 46 43 39 38 42 34 35 37 34 42 53 56 62 65 60
24 27 32 36 41 42 41 46 51 47 47 50 45 48 51 51 52 63 67 64 59 60 59 56 53 49 46 41 43 42 38 37 41 35 27 30 34 48 52 61 56 49 52
28 33 33 34 36 40 44 51 56 50 42 42 39 36 46 55 63 67 70 73 74 73 66 67 67 64 59 50 45 46 42 43 40 38 32 29 39 33 32 40 51 63 74
32 33 34 33 40 43 48 43 37 36 39 36 38 44 36 34 47 51 55 58 64 57 52 55 58 60 65 66 63 57 43 43 36 24 29 24 30 35 33 37 39 50 65
Wind_Direction_500mb
15 1 353 349 357 335 346 337 346 317 103 96 71 25 9 0 352 356 352 341 325 311 304 260 228 192 179 205 196 198 196 195 209 205 205 205 190 189 182 173 169 170 181
319 299 320 333 359 358 320 321 334 272 281 294 260 1 348 352 348 0 3 2 354 336 321 282 233 202 191 191 179 174 185 199 200 189 180 174 166 163 160 156 155 157 158
325 322 315 340 343 358 308 297 305 316 287 285 271 277 311 330 336 351 12 12 6 354 325 287 217 204 202 196 200 198 184 180 176 171 164 162 160 160 162 162 161 164 166
291 300 330 354 14 270 290 295 294 303 287 280 281 278 297 304 306 315 330 350 9 7 356 335 285 210 193 190 189 190 186 181 174 168 166 164 164 160 157 150 146 147 142
298 310 323 313 310 289 286 287 297 291 283 280 261 261 281 293 293 293 296 305 313 337 345 338 318 263 218 199 193 194 193 187 183 176 172 168 161 155 149 140 134 129 125
285 287 303 301 301 303 304 294 285 269 273 267 267 258 264 272 274 281 282 279 285 284 284 290 293 268 237 218 206 202 200 196 193 187 182 173 164 158 153 146 142 136 132
272 270 284 295 307 306 305 300 288 268 264 276 276 280 271 264 264 269 273 270 267 270 269 266 263 257 246 235 224 217 211 206 203 197 189 185 179 176 170 163 156 149 140
288 282 287 293 301 302 302 294 283 278 273 272 276 287 291 276 269 273 277 265 267 263 262 261 257 252 243 236 235 228 223 217 211 206 205 205 201 196 192 187 183 174 166
292 292 297 299 303 312 305 288 275 276 280 279 276 273 289 280 299 296 288 271 267 263 262 261 259 256 250 245 235 231 228 224 221 217 215 215 212 208 206 204 199 195 190
274 283 295 302 302 317 314 298 277 277 281 284 281 280 277 278 283 291 286 280 278 273 266 264 262 259 256 250 247 241 235 232 226 224 225 222 220 220 220 218 215 213 209
253 278 290 299 298 300 304 302 285 284 285 290 294 298 295 285 282 277 284 288 275 276 277 277 273 266 264 256 249 245 241 237 236 233 232 230 228 227 227 227 225 224 222
248 264 268 290 296 294 294 290 288 283 286 292 299 302 300 297 292 289 280 288 288 284 278 275 271 270 267 261 256 252 246 242 240 238 238 237 234 232 232 231 230 229 228
264 271 271 287 295 292 289 293 289 292 300 297 295 296 296 291 290 290 291 290 291 293 291 286 282 276 270 268 263 258 253 249 245 242 240 241 241 239 236 234 234 233 231
276 278 282 284 293 288 290 289 293 297 302 305 304 302 298 297 296 296 295 294 291 286 285 291 297 290 274 264 264 260 263 259 253 247 245 242 243 243 240 236 235 236 235
268 283 264 265 282 289 294 311 316 317 317 319 313 307 304 302 299 299 298 295 291 287 290 296 299 300 276 274 258 272 261 263 268 259 250 246 243 243 242 240 236 236 236
263 269 283 289 296 290 312 315 319 317 312 306 301 299 297 299 303 308 304 302 302 297 291 297 294 299 285 275 262 260 268 254 253 265 263 254 246 243 244 240 237 234 231
286 265 297 307 292 301 311 319 319 313 297 293 298 303 303 304 305 305 302 299 298 297 296 299 303 297 299 275 276 270 265 255 257 247 252 254 259 251 242 239 237 234 232
144 158 305 300 311 321 324 321 310 297 304 310 314 314 311 308 310 312 311 306 300 298 298 298 298 297 294 301 280 282 281 261 255 245 243 243 257 261 254 234 230 231 231
150 308 317 321 332 336 332 328 336 332 327 330 330 328 330 319 316 320 318 316 313 305 300 297 301 303 303 295 289 288 275 267 267 256 248 242 242 247 242 234 227 229 228
319 335 349 357 357 352 342 341 342 342 333 322 323 311 309 305 307 304 304 304 311 306 302 298 296 299 303 311 305 284 279 271 272 266 253 245 233 244 239 231 222 226 228
350 355 359 13 4 356 342 335 331 324 315 309 315 323 316 304 308 309 307 301 302 300 301 302 298 297 298 296 304 308 289 288 280 282 252 247 246 242 250 249 235 227 224
351 338 330 334 338 338 328 334 321 314 311 307 312 319 312 303 302 304 300 291 297 299 301 300 299 295 290 292 295 300 291 290 294 294 265 258 252 250 251 250 232 231 208
331 322 325 323 309 308 307 318 310 304 300 302 311 311 311 311 310 307 307 294 287 287 292 290 293 299 300 289 287 292 287 285 290 292 281 281 285 256 249 234 215 200 201
314 305 309 304 306 310 305 304 306 301 301 308 311 311 313 314 312 306 301 292 286 280 283 283 282 286 289 289 285 284 279 278 284 283 266 266 274 254 235 231 219 214 211
309 313 310 305 303 298 303 309 312 313 318 320 319 320 316 311 308 304 296 290 286 280 277 277 278 278 275 273 278 280 275 272 276 281 280 267 261 259 258 253 240 228 219
301 305 306 301 302 307 312 320 326 327 323 325 326 323 323 342 351 351 336 323 305 299 292 284 281 279 271 265 264 266 272 267 258 262 276 266 256 254 254 255 255 237 220
Wind_Speed_850mb
9 9 15 14 5 9 7 12 17 4 5 8 9 12 17 15 19 22 18 13 9 10 10 8 12 15 16 21 21 20 22 21 16 13 13 13 12 14 13 14 15 15 15
7 8 12 13 9 13 7 13 16 6 6 5 2 3 10 13 14 20 18 16 12 9 7 5 9 12 17 17 16 20 19 16 13 14 14 14 15 16 15 14 14 15 14
13 14 15 12 11 9 8 12 17 18 15 10 11 7 11 17 17 17 15 13 17 11 7 5 7 11 14 15 16 14 14 15 15 15 15 15 15 15 15 16 16 15 14
16 13 15 5 2 12 9 15 23 21 15 15 14 12 15 18 20 17 17 13 13 14 11 8 4 8 12 14 15 15 15 16 16 17 16 16 15 15 16 15 15 14 14
13 16 16 11 14 17 17 18 23 20 18 16 18 20 20 22 24 24 23 19 13 9 8 8 6 6 10 13 16 17 17 17 17 17 17 17 17 17 18 19 20 20 19
12 14 18 24 23 24 25 24 22 22 22 21 21 26 30 28 27 29 28 28 26 19 12 9 8 10 10 13 16 18 20 20 20 20 20 20 21 22 22 21 20 18 16
16 21 23 27 29 28 29 28 26 24 25 26 28 29 32 32 34 34 35 37 36 33 28 22 17 13 16 17 17 19 21 22 23 23 23 22 21 21 21 19 18 17 16
18 23 26 25 30 31 29 28 28 25 25 26 30 32 30 34 41 42 42 46 44 45 43 38 34 29 24 25 25 24 26 28 29 28 27 26 25 24 23 21 20 17 15
14 15 19 22 25 27 29 27 29 34 34 32 32 31 18 18 26 28 29 39 47 53 53 53 50 46 43 38 35 35 34 33 35 36 35 34 31 30 28 26 25 22 20
18 20 23 25 24 26 27 26 27 30 33 36 33 36 41 48 43 37 35 32 32 39 49 56 58 61 59 57 52 48 43 41 41 42 42 39 39 38 35 31 28 26 24
16 21 24 28 30 33 37 33 30 28 31 34 33 37 39 44 50 53 69 47 42 50 56 60 61 62 63 71 72 67 59 56 53 50 49 48 47 46 44 40 37 34 33
12 18 21 25 33 39 39 37 38 39 37 41 40 42 45 47 48 50 52 62 65 66 63 65 65 66 69 76 81 82 77 72 67 63 60 57 54 52 52 50 47 43 41
14 33 23 25 35 40 40 41 41 43 40 45 44 45 45 47 49 51 53 57 63 71 71 69 67 68 75 80 75 80 94 86 86 82 75 70 65 59 55 53 52 50 47
32 33 42 42 42 41 42 39 36 37 34 36 38 40 43 48 49 49 46 49 57 58 57 61 60 56 66 65 83 73 66 75 96 97 93 85 81 75 68 62 56 57 54
35 33 33 37 31 31 29 20 22 29 32 35 38 40 41 41 42 41 40 39 42 49 52 46 45 39 52 51 66 78 80 86 77 79 96 101 96 90 83 74 67 61 54
30 31 28 16 17 18 22 26 31 35 34 36 38 40 39 35 32 34 36 37 40 41 46 49 47 43 39 44 55 60 70 82 105 74 60 67 91 105 98 89 76 69 62
26 7 9 9 18 22 26 32 35 32 34 34 31 30 31 33 35 36 38 41 43 42 48 52 45 39 44 43 53 55 71 74 84 93 69 59 60 70 98 101 91 81 72
2 2 5 12 18 27 34 31 21 20 21 23 26 31 33 35 36 39 41 39 43 43 45 49 48 46 44 36 30 40 44 66 76 87 100 81 69 69 73 98 95 91 81
1 8 14 20 30 29 18 13 19 25 27 32 34 33 35 34 37 38 40 41 43 45 46 50 51 48 48 41 42 47 47 46 56 70 65 87 105 75 66 77 91 91 89
4 11 22 27 22 19 18 25 27 31 30 33 39 38 36 35 39 42 45 46 45 43 42 47 49 52 48 43 42 43 44 52 52 54 53 55 59 39 56 75 81 86 90
12 23 16 21 26 28 27 31 37 37 38 36 35 34 36 38 42 46 51 44 45 46 47 48 48 50 50 46 40 39 39 41 47 41 53 46 49 53 48 56 78 73 77
22 19 19 29 33 33 33 38 46 44 49 48 45 46 45 48 55 60 56 51 49 47 48 48 47 48 47 45 42 39 40 42 36 29 32 51 51 58 55 55 71 93 83
21 21 29 36 39 42 39 43 39 46 47 40 47 53 53 52 52 49 48 47 48 51 54 52 51 45 45 40 46 43 39 38 42 34 35 37 34 42 53 56 62 65 60
24 27 32 36 41 42 41 46 51 47 47 50 45 48 51 51 52 63 67 64 59 60 59 56 53 49 46 41 43 42 38 37 41 35 27 30 34 48 52 61 56 49 52
28 33 33 34 36 40 44 51 56 50 42 42 39 36 46 55 63 67 70 73 74 73 66 67 67 64 59 50 45 46 42 43 40 38 32 29 39 33 32 40 51 63 74
32 33 34 33 40 43 48 43 37 36 39 36 38 44 36 34 47 51 55 58 64 57 52 55 58 60 65 66 63 57 43 43 36 24 29 24 30 35 33 37 39 50 65
Wind_Direction_850mb
15 1 353 349 357 335 346 337 346 317 103 96 71 25 9 0 352 356 352 341 325 311 304 260 228 192 179 205 196 198 196 195 209 205 205 205 190 189 182 173 169 170 181
319 299 320 333 359 358 320 321 334 272 281 294 260 1 348 352 348 0 3 2 354 336 321 282 233 202 191 191 179 174 185 199 200 189 180 174 166 163 160 156 155 157 158
325 322 315 340 343 358 308 297 305 316 287 285 271 277 311 330 336 351 12 12 6 354 325 287 217 204 202 196 200 198 184 180 176 171 164 162 160 160 162 162 161 164 166
291 300 330 354 14 270 290 295 294 303 287 280 281 278 297 304 306 315 330 350 9 7 356 335 285 210 193 190 189 190 186 181 174 168 166 164 164 160 157 150 146 147 142
298 310 323 313 310 289 286 287 297 291 283 280 261 261 281 293 293 293 296 305 313 337 345 338 318 263 218 199 193 194 193 187 183 176 172 168 161 155 149 140 134 129 125
285 287 303 301 301 303 304 294 285 269 273 267 267 258 264 272 274 281 282 279 285 284 284 290 293 268 237 218 206 202 200 196 193 187 182 173 164 158 153 146 142 136 132
272 270 284 295 307 306 305 300 288 268 264 276 276 280 271 264 264 269 273 270 267 270 269 266 263 257 246 235 224 217 211 206 203 197 189 185 179 176 170 163 156 149 140
288 282 287 293 301 302 302 294 283 278 273 272 276 287 291 276 269 273 277 265 267 263 262 261 257 252 243 236 235 228 223 217 211 206 205 205 201 196 192 187 183 174 166
292 292 297 299 303 312 305 288 275 276 280 279 276 273 289 280 299 296 288 271 267 263 262 261 259 256 250 245 235 231 228 224 221 217 215 215 212 208 206 204 199 195 190
274 283 295 302 302 317 314 298 277 277 281 284 281 280 277 278 283 291 286 280 278 273 266 264 262 259 256 250 247 241 235 232 226 224 225 222 220 220 220 218 215 213 209
253 278 290 299 298 300 304 302 285 284 285 290 294 298 295 285 282 277 284 288 275 276 277 277 273 266 264 256 249 245 241 237 236 233 232 230 228 227 227 227 225 224 222
248 264 268 290 296 294 294 290 288 283 286 292 299 302 300 297 292 289 280 288 288 284 278 275 271 270 267 261 256 252 246 242 240 238 238 237 234 232 232 231 230 229 228
264 271 271 287 295 292 289 293 289 292 300 297 295 296 296 291 290 290 291 290 291 293 291 286 282 276 270 268 263 258 253 249 245 242 240 241 241 239 236 234 234 233 231
276 278 282 284 293 288 290 289 293 297 302 305 304 302 298 297 296 296 295 294 291 286 285 291 297 290 274 264 264 260 263 259 253 247 245 242 243 243 240 236 235 236 235
268 283 264 265 282 289 294 311 316 317 317 319 313 307 304 302 299 299 298 295 291 287 290 296 299 300 276 274 258 272 261 263 268 259 250 246 243 243 242 240 236 236 236
263 269 283 289 296 290 312 315 319 317 312 306 301 299 297 299 303 308 304 302 302 297 291 297 294 299 285 275 262 260 268 254 253 265 263 254 246 243 244 240 237 234 231
286 265 297 307 292 301 311 319 319 313 297 293 298 303 303 304 305 305 302 299 298 297 296 299 303 297 299 275 276 270 265 255 257 247 252 254 259 251 242 239 237 234 232
144 158 305 300 311 321 324 321 310 297 304 310 314 314 311 308 310 312 311 306 300 298 298 298 298 297 294 301 280 282 281 261 255 245 243 243 257 261 254 234 230 231 231
150 308 317 321 332 336 332 328 336 332 327 330 330 328 330 319 316 320 318 316 313 305 300 297 301 303 303 295 289 288 275 267 267 256 248 242 242 247 242 234 227 229 228
319 335 349 357 357 352 342 341 342 342 333 322 323 311 309 305 307 304 304 304 311 306 302 298 296 299 303 311 305 284 279 271 272 266 253 245 233 244 239 231 222 226 228
350 355 359 13 4 356 342 335 331 324 315 309 315 323 316 304 308 309 307 301 302 300 301 302 298 297 298 296 304 308 289 288 280 282 252 247 246 242 250 249 235 227 224
351 338 330 334 338 338 328 334 321 314 311 307 312 319 312 303 302 304 300 291 297 299 301 300 299 295 290 292 295 300 291 290 294 294 265 258 252 250 251 250 232 231 208
331 322 325 323 309 308 307 318 310 304 300 302 311 311 311 311 310 307 307 294 287 287 292 290 293 299 300 289 287 292 287 285 290 292 281 281 285 256 249 234 215 200 201
314 305 309 304 306 310 305 304 306 301 301 308 311 311 313 314 312 306 301 292 286 280 283 283 282 286 289 289 285 284 279 278 284 283 266 266 274 254 235 231 219 214 211
309 313 310 305 303 298 303 309 312 313 318 320 319 320 316 311 308 304 296 290 286 280 277 277 278 278 275 273 278 280 275 272 276 281 280 267 261 259 258 253 240 228 219
301 305 306 301 302 307 312 320 326 327 323 325 326 323 323 342 351 351 336 323 305 299 292 284 281 279 271 265 264 266 272 267 258 262 276 266 256 254 254 255 255 237 220